Regional Weather Roundup
Issued by NWS

Home | Current Version | Previous Version | Text Only | Print | Product List | Glossary Off
Versions: 1 2 3 4 5 6 7 8 9 10 11 12 13 14 15 16 17 18 19 20 21 22 23 24 25 26 27

000
ASUS45 KPSR 161310
RWRAZ

ARIZONA HOURLY REGIONAL WEATHER ROUNDUP
NATIONAL WEATHER SERVICE PHOENIX AZ
600 AM MST TUE JAN 16 2018

NOTE: FAIR INDICATES FEW OR NO CLOUDS BELOW 12,000 FEET WITH NO
SIGNIFICANT WEATHER AND/OR OBSTRUCTIONS TO VISIBILITY.

AZZ001>003-036-161400-
NORTHWEST ARIZONA

CITY           SKY/WX    TMP DP  RH WIND       PRES   REMARKS
BULLHEAD CITY  CLEAR     52  41  66 S5        30.12R
KINGMAN        CLEAR     38  32  79 E6        30.17S WCI  33
$$

AZZ004>008-015-016-018-161400-
NORTH CENTRAL ARIZONA

CITY           SKY/WX    TMP DP  RH WIND       PRES   REMARKS
GRAND CANYON   MOCLDY    38  21  50 E14       30.29R WCI  30
WILLIAMS       PTCLDY    30  21  69 SE7       30.24S WCI  23
PRESCOTT       MOCLDY    34  26  72 S3        30.22S
FLAGSTAFF      MOCLDY    25  20  81 CALM      30.28S
PAYSON         CLOUDY    46  21  36 NE6       30.22R
PAGE           MOCLDY    36  28  73 SW3       30.32R
$$

AZZ009>014-017-161400-
NORTHEAST ARIZONA

CITY           SKY/WX    TMP DP  RH WIND       PRES   REMARKS
WINSLOW        CLOUDY    29  18  63 CALM      30.30R
SAINT JOHNS    MOCLDY    25  19  78 W3        30.27R
WINDOW ROCK    MOCLDY    21  17  84 CALM      30.30R
SHOW LOW       CLOUDY    30  23  74 CALM      30.30R
$$

AZZ540-542>544-546-548-161400-
GREATER PHOENIX AREA

CITY           SKY/WX    TMP DP  RH WIND       PRES   REMARKS
PHOENIX        MOCLDY    55  36  48 CALM      30.09R
BUCKEYE        CLOUDY    46  41  81 CALM      30.11R
GLENDALE       MOCLDY    52  37  58 NW6       30.12
LUKE AFB       MOCLDY    49  39  68 N7        30.09R
DEER VALLEY    MOCLDY    53  36  52 N5        30.10R
SCOTTSDALE     CLOUDY    52  37  56 CALM      30.11S
MESA-FALCON    MOCLDY    55  34  44 N6        30.10
MESA-GATEWAY   MOCLDY    52  34  50 E8        30.10F
CHANDLER       PTCLDY    50  37  62 CALM      30.09
$$

AZZ539-553-161400-
SOUTHWEST MARICOPA COUNTY AND PINAL COUNTY

CITY           SKY/WX    TMP DP  RH WIND       PRES   REMARKS
CASA GRANDE    NOT AVBL
GILA BEND      FAIR      47  35  63 E7        30.08S
$$

AZZ503-504-507>509-161400-
SOUTHEAST ARIZONA

CITY           SKY/WX    TMP DP  RH WIND       PRES   REMARKS
TUCSON         CLOUDY    51  24  34 SE6       30.14S
DAVIS-MONTHAN  MOCLDY    52  23  31 SW5       30.12S
RYAN FIELD     CLEAR     48  27  43 S3        30.14
NOGALES        CLOUDY    42  23  46 S6        30.17R
SIERRA VISTA   CLOUDY    47  19  33 N7        30.21R
DOUGLAS        CLOUDY    33  18  53 VRB5      30.22R WCI  29
SAFFORD        CLOUDY    42  23  46 SE10      30.31R
$$

AZZ532-161400-
SOUTHWEST ARIZONA

CITY           SKY/WX    TMP DP  RH WIND       PRES   REMARKS
YUMA           NOT AVBL
$$

CAZ041-043-047-048-061-525>527-560>570-161400-
SOUTHERN CALIFORNIA

CITY           SKY/WX    TMP DP  RH WIND       PRES   REMARKS
DOWNTOWN L.A.  PTCLDY    53  53 100 CALM      30.11S FOG
L.A. AIRPORT   FOG       56  56 100 NE3       30.11F VSB 1/16
SAN DIEGO      MOCLDY    55  53  93 CALM      30.11F
BURBANK        PTCLDY    51  45  79 CALM      30.11S
ONTARIO        CLOUDY    53  43  68 CALM      30.11F
RIVERSIDE      PTCLDY    50  43  77 CALM      30.12F
PALM SPRINGS   PTCLDY    59  39  47 N5        30.08F
IMPERIAL       PTCLDY    49  33  54 CALM      30.06F
BLYTHE         PTCLDY    47  37  68 N6        30.10R
NEEDLES        CLEAR     52  39  61 W6        30.12R
$$

NVZ020-UTZ003-161400-
SOUTHERN NEVADA-UTAH

CITY           SKY/WX    TMP DP  RH WIND       PRES   REMARKS
LAS VEGAS      MOCLDY    50  40  68 CALM      30.16R
SALT LAKE CITY PTCLDY    36  23  59 S8        30.30F WCI  30
$$

NMZ009-TXZ055-161400-
NEW MEXICO-WEST TEXAS

CITY           SKY/WX    TMP DP  RH WIND       PRES   REMARKS
ALBUQUERQUE    CLOUDY    25  13  60 E21       30.43F WCI  11
EL PASO        PTCLDY    28   8  43 E6        30.46R WCI  22
$$


........................KEY........................
SKY/WX - SKY CONDITION/WEATHER
TMP    - TEMPERATURE IN FAHRENHEIT
DP     - DEW POINT IN FAHRENHEIT
RH     - RELATIVE HUMIDITY IN PERCENT
WIND   - DIRECTION AND SPEED IN MILES PER HOUR (MPH)
VRB    - VARIABLE WIND DIRECTION
PRES   - MEAN SEA LEVEL PRESSURE IN INCHES OF MERCURY
         F - FALLING PRESSURE   R - RISING PRESSURE
         S - STEADY PRESSURE
VSB    - VISIBILITY IN MILES
HX     - HEAT INDEX IN FAHRENHEIT
WCI    - WIND CHILL INDEX IN FAHRENHEIT
TC     - TEMPERATURE IN CELSIUS WHICH IS ALSO KNOWN AS
         TEMPERATURE IN CENTIGRADE
AFB    - AIR FORCE BASE
         LUKE AFB IS LUKE AIR FORCE BASE
         DAVIS-MONTHAN IS DAVIS-MONTHAN AIR FORCE BASE
NAS    - NAVAL AIR STATION
         EL CENTRO NAS IS EL CENTRO NAVAL AIR STATION
N/A    - NOT AVAILABLE





USA.gov is the U.S. government's official web portal to all federal, state and local government web resources and services.